K4AVM-13 Weather Reports


time (UTC)temp
F
wind
direction
speed
knots
gust
knots
rain 1hr
in
rain 24hr
in
rain mn
in
humidity
%
barometer
mb
20260506113933 64 164 0.0 1.7 0.00 0.00 0.00 79 1013.2
20260506113431 63 144 0.9 2.6 0.00 0.00 0.00 79 1013.3
20260506112927 63 127 0.9 2.6 0.00 0.00 0.00 79 1013.4
20260506112425 63 139 0.9 5.2 0.00 0.00 0.00 80 1013.5
20260506111921 63 145 1.7 1.7 0.00 0.00 0.00 79 1013.4
20260506111420 63 209 0.0 1.7 0.00 0.00 0.00 79 1013.4
20260506110916 63 98 1.7 7.0 0.00 0.00 0.00 79 1013.3
20260506110414 63 145 1.7 5.2 0.00 0.00 0.00 79 1013.4
20260506105910 63 164 1.7 2.6 0.00 0.00 0.00 79 1013.7
20260506105407 63 163 0.0 1.7 0.00 0.00 0.00 79 1013.6
20260506104904 63 110 1.7 1.7 0.00 0.00 0.00 79 1013.6
20260506104402 63 257 1.7 3.5 0.00 0.00 0.00 79 1013.6
20260506103900 63 180 0.9 1.7 0.00 0.00 0.00 79 1013.7
20260506103357 63 163 0.0 2.6 0.00 0.00 0.00 79 1013.8
20260506102854 63 161 0.0 1.7 0.00 0.00 0.00 78 1013.5
20260506102352 63 131 0.9 2.6 0.00 0.00 0.00 78 1013.4
20260506101849 63 154 0.0 2.6 0.00 0.00 0.00 78 1013.4
20260506101345 63 257 2.6 6.1 0.00 0.00 0.00 78 1013.3
20260506100843 63 165 0.9 1.7 0.00 0.00 0.00 78 1013.4
20260506100341 63 201 1.7 6.1 0.00 0.00 0.00 78 1013.4
20260506095839 63 134 1.7 1.7 0.00 0.00 0.00 78 1013.1
20260506095336 63 197 1.7 6.1 0.00 0.00 0.00 77 1013.4
20260506094833 63 161 0.9 1.7 0.00 0.00 0.00 77 1013.4
20260506094332 64 89 1.7 6.1 0.00 0.00 0.00 77 1013.3
20260506093829 64 112 0.9 5.2 0.00 0.00 0.00 77 1013.2
20260506093326 64 127 1.7 5.2 0.00 0.00 0.00 77 1013.3
20260506092824 64 127 0.0 5.2 0.00 0.00 0.00 77 1013.2
20260506092322 64 99 1.7 7.0 0.00 0.00 0.00 77 1013.3
20260506091818 64 209 1.7 2.6 0.00 0.00 0.00 77 1013.3
20260506091316 64 178 1.7 2.6 0.00 0.00 0.00 77 1013.2
20260506090814 64 99 0.9 2.6 0.00 0.00 0.00 77 1013.2
20260506090311 64 114 0.9 2.6 0.00 0.00 0.00 77 1013.2
20260506085807 64 195 3.5 5.2 0.00 0.00 0.00 78 1013.4
20260506085305 64 201 1.7 5.2 0.00 0.00 0.00 78 1013.5
20260506084800 64 184 1.7 1.7 0.00 0.00 0.00 78 1013.6
20260506084256 64 158 0.9 5.2 0.00 0.00 0.00 78 1013.5
20260506083754 64 202 2.6 3.5 0.00 0.00 0.00 78 1013.5
20260506083251 64 189 1.7 1.7 0.00 0.00 0.00 78 1013.6
20260506082748 64 141 0.0 1.7 0.00 0.00 0.00 78 1013.6
20260506082243 64 169 1.7 3.5 0.00 0.00 0.00 78 1013.6
20260506081742 64 164 2.6 6.1 0.00 0.00 0.00 78 1013.5
20260506081239 64 171 0.9 2.6 0.00 0.00 0.00 78 1013.7
20260506080737 64 123 1.7 5.2 0.00 0.00 0.00 78 1013.5
20260506080233 64 113 0.0 1.7 0.00 0.00 0.00 78 1013.5
20260506073217 65 148 0.0 2.6 0.00 0.00 0.00 77 1013.7
20260506072714 65 188 1.7 3.5 0.00 0.00 0.00 77 1013.7
20260506072212 65 174 0.9 5.2 0.00 0.00 0.00 77 1013.8
20260506071709 65 163 1.7 7.0 0.00 0.00 0.00 77 1013.7
20260506071207 65 123 0.9 7.0 0.00 0.00 0.00 77 1013.7
20260506070703 65 126 1.7 2.6 0.00 0.00 0.00 76 1013.9
20260506070201 65 159 0.9 3.5 0.00 0.00 0.00 76 1013.9
20260506062137 66 202 5.2 7.8 0.00 0.00 0.00 75 1014.0
20260506061633 66 177 0.9 2.6 0.00 0.00 0.00 75 1013.9
20260506061131 66 128 0.9 1.7 0.00 0.00 0.00 75 1014.0
20260506060629 66 186 2.6 5.2 0.00 0.00 0.00 74 1014.1
20260506060126 66 194 1.7 5.2 0.00 0.00 0.00 74 1014.1
20260506051058 67 165 2.6 5.2 0.00 0.00 0.00 73 1014.5
20260506050556 67 118 0.0 1.7 0.00 0.00 0.00 73 1014.5
20260506045046 68 176 1.7 2.6 0.00 0.00 0.00 72 1014.8
20260506044544 68 113 1.7 3.5 0.00 0.00 0.00 72 1014.8
20260506044041 68 185 2.6 6.1 0.00 0.00 0.00 71 1014.9
20260506043538 68 177 2.6 6.1 0.00 0.00 0.00 71 1014.8
20260506043036 68 150 1.7 7.0 0.00 0.00 0.00 70 1014.8
20260506042535 69 199 3.5 3.5 0.00 0.00 0.00 70 1014.7
20260506042033 69 184 3.5 5.2 0.00 0.00 0.00 70 1014.6
20260506041531 69 166 0.0 2.6 0.00 0.00 0.00 69 1014.7
20260506041027 69 182 0.9 5.2 0.00 0.00 0.00 69 1014.6
20260506040526 69 145 0.9 2.6 0.00 0.00 0.00 68 1014.6
20260506040021 69 187 1.7 7.0 0.00 0.00 0.00 68 1014.7
20260506035518 69 169 1.7 3.5 0.00 0.00 0.00 68 1014.5
20260506035015 69 107 1.7 6.1 0.00 0.00 0.00 67 1014.6
20260506034513 70 172 0.9 6.1 0.00 0.00 0.00 66 1014.6
20260506034009 70 137 1.7 7.0 0.00 0.00 0.00 65 1014.7
20260506033507 70 200 0.9 2.6 0.00 0.00 0.00 64 1014.5
20260506033004 70 165 1.7 2.6 0.00 0.00 0.00 63 1014.6
20260506032501 70 132 0.0 3.5 0.00 0.00 0.00 63 1014.7
20260506031956 70 204 0.0 0.9 0.00 0.00 0.00 62 1014.6
20260506031455 70 132 0.0 2.6 0.00 0.00 0.00 61 1014.6
20260506030952 70 135 0.0 1.7 0.00 0.00 0.00 60 1014.4
20260506030450 71 145 0.9 0.9 0.00 0.00 0.00 59 1014.4
20260506025946 71 180 1.7 2.6 0.00 0.00 0.00 58 1014.4
20260506025443 72 159 0.0 1.7 0.00 0.00 0.00 58 1014.3
20260506024940 72 207 2.6 3.5 0.00 0.00 0.00 57 1014.6
20260506024437 72 227 2.6 6.1 0.00 0.00 0.00 57 1014.4
20260506023932 72 154 2.6 3.5 0.00 0.00 0.00 56 1014.5
20260506023430 72 169 0.9 0.9 0.00 0.00 0.00 56 1014.4
20260506022926 72 169 0.9 1.7 0.00 0.00 0.00 55 1014.6
20260506022424 72 144 0.0 2.6 0.00 0.00 0.00 54 1014.5
20260506021922 72 155 0.9 3.5 0.00 0.00 0.00 54 1014.4
20260506021419 73 172 0.9 1.7 0.00 0.00 0.00 54 1014.4
20260506020916 73 112 3.5 3.5 0.00 0.00 0.00 53 1014.3
20260506020414 73 129 0.0 1.7 0.00 0.00 0.00 53 1014.3
20260506015911 73 154 0.0 0.9 0.00 0.00 0.00 53 1014.3
20260506015408 73 169 0.0 2.6 0.00 0.00 0.00 53 1014.4
20260506014905 73 141 0.9 1.7 0.00 0.00 0.00 52 1014.3
20260506014402 73 126 0.0 3.5 0.00 0.00 0.00 52 1014.2
20260506013858 73 194 0.0 6.1 0.00 0.00 0.00 52 1014.2
20260506013356 73 195 1.7 3.5 0.00 0.00 0.00 52 1014.3
20260506012852 74 155 0.9 5.2 0.00 0.00 0.00 52 1014.1
20260506012349 74 149 1.7 2.6 0.00 0.00 0.00 51 1014.0
20260506011846 74 123 0.0 6.1 0.00 0.00 0.00 51 1014.2
20260506011343 74 151 0.0 2.6 0.00 0.00 0.00 51 1013.9
20260506010840 74 168 1.7 2.6 0.00 0.00 0.00 51 1013.9
20260506010338 74 151 0.0 1.7 0.00 0.00 0.00 50 1013.9
20260506005835 74 145 0.9 3.5 0.00 0.00 0.00 49 1013.9
20260506005332 75 141 0.9 3.5 0.00 0.00 0.00 49 1013.7
20260506004828 75 145 0.9 2.6 0.00 0.00 0.00 48 1013.8
20260506004326 75 146 0.0 2.6 0.00 0.00 0.00 48 1013.6
20260506003821 75 149 0.0 5.2 0.00 0.00 0.00 47 1013.5
20260506003318 75 196 2.6 3.5 0.00 0.00 0.00 47 1013.6
20260506002814 76 123 0.9 2.6 0.00 0.00 0.00 47 1013.5
20260506002311 76 155 0.0 7.8 0.00 0.00 0.00 46 1013.6
20260506001806 76 164 1.7 5.2 0.00 0.00 0.00 46 1013.3
20260506001304 76 119 1.7 2.6 0.00 0.00 0.00 46 1013.3
20260506000801 76 122 0.9 3.5 0.00 0.00 0.00 46 1013.3
20260506000259 76 157 0.9 6.1 0.00 0.00 0.00 45 1013.4
20260505235755 76 145 0.9 2.6 0.00 0.00 0.00 45 1013.4
20260505235253 77 155 0.9 5.2 0.00 0.00 0.00 44 1013.3
20260505234749 77 168 4.3 6.1 0.00 0.00 0.00 44 1013.4
20260505234247 77 126 2.6 3.5 0.00 0.00 0.00 44 1013.3
20260505233743 77 174 1.7 5.2 0.00 0.00 0.00 44 1013.1
20260505233242 77 142 0.9 3.5 0.00 0.00 0.00 44 1013.3
20260505232738 77 166 1.7 2.6 0.00 0.00 0.00 44 1013.4
20260505232236 77 141 2.6 7.8 0.00 0.00 0.00 44 1013.2
20260505231732 77 161 0.0 3.5 0.00 0.00 0.00 44 1013.2
20260505231232 78 158 0.0 0.9 0.00 0.00 0.00 44 1013.3
20260505230729 78 159 0.0 5.2 0.00 0.00 0.00 43 1013.1
20260505230226 78 171 0.0 5.2 0.00 0.00 0.00 42 1013.3
20260505225722 79 186 0.9 3.5 0.00 0.00 0.00 42 1013.3
20260505225219 79 213 1.7 9.6 0.00 0.00 0.00 41 1013.1
20260505224715 79 160 2.6 6.1 0.00 0.00 0.00 41 1013.1
20260505224213 79 135 0.9 5.2 0.00 0.00 0.00 41 1013.1
20260505223710 79 137 0.0 5.2 0.00 0.00 0.00 40 1013.2
20260505223206 80 171 0.9 3.5 0.00 0.00 0.00 40 1013.3
20260505222702 80 102 0.9 2.6 0.00 0.00 0.00 40 1013.2
20260505222158 80 161 0.9 7.0 0.00 0.00 0.00 39 1013.0
20260505221655 80 162 0.9 5.2 0.00 0.00 0.00 38 1013.1
20260505221152 81 233 2.6 3.5 0.00 0.00 0.00 38 1013.1
20260505220649 81 164 0.9 5.2 0.00 0.00 0.00 38 1013.0
20260505220147 81 147 1.7 3.5 0.00 0.00 0.00 37 1012.9
20260505215644 81 155 0.0 2.6 0.00 0.00 0.00 38 1013.0
20260505215142 81 159 0.9 2.6 0.00 0.00 0.00 37 1012.8
20260505214640 81 120 1.7 5.2 0.00 0.00 0.00 36 1013.0
20260505214137 81 122 2.6 3.5 0.00 0.00 0.00 37 1012.7
20260505213634 82 188 1.7 5.2 0.00 0.00 0.00 35 1012.8
20260505213131 82 155 1.7 9.6 0.00 0.00 0.00 34 1012.8
20260505212627 83 182 1.7 5.2 0.00 0.00 0.00 33 1012.8
20260505212125 83 201 1.7 8.7 0.00 0.00 0.00 33 1012.9
20260505211621 83 358 2.6 2.6 0.00 0.00 0.00 33 1013.0
20260505211119 84 160 3.5 6.1 0.00 0.00 0.00 32 1012.8
20260505210615 83 105 2.6 3.5 0.00 0.00 0.00 32 1012.8
20260505210112 84 180 2.6 7.0 0.00 0.00 0.00 32 1013.0
20260505205610 83 165 1.7 5.2 0.00 0.00 0.00 31 1013.0
20260505205107 83 143 0.9 6.1 0.00 0.00 0.00 32 1012.9
20260505204604 83 192 1.7 2.6 0.00 0.00 0.00 32 1012.6
20260505204102 85 136 0.9 2.6 0.00 0.00 0.00 29 1012.8
20260505203558 84 239 1.7 3.5 0.00 0.00 0.00 29 1012.8
20260505203055 85 219 3.5 5.2 0.00 0.00 0.00 29 1013.0
20260505202551 85 126 0.9 5.2 0.00 0.00 0.00 29 1013.0
20260505202047 85 119 2.6 3.5 0.00 0.00 0.00 30 1012.9
20260505201544 85 212 0.9 2.6 0.00 0.00 0.00 30 1012.7
20260505201042 84 131 2.6 5.2 0.00 0.00 0.00 30 1012.9
20260505200539 86 114 2.6 6.1 0.00 0.00 0.00 31 1013.0
20260505200036 85 173 1.7 3.5 0.00 0.00 0.00 29 1013.1
20260505195532 85 239 0.9 5.2 0.00 0.00 0.00 30 1013.2
20260505195030 84 157 1.7 5.2 0.00 0.00 0.00 28 1013.2
20260505194527 85 134 2.6 12.2 0.00 0.00 0.00 28 1013.4
20260505194022 85 203 2.6 3.5 0.00 0.00 0.00 29 1013.4
20260505193520 84 166 1.7 6.1 0.00 0.00 0.00 29 1013.5
20260505193017 86 130 3.5 6.1 0.00 0.00 0.00 28 1013.3
20260505192516 85 194 2.6 3.5 0.00 0.00 0.00 28 1013.7
20260505192013 85 200 0.9 3.5 0.00 0.00 0.00 29 1013.6
20260505191511 85 242 1.7 2.6 0.00 0.00 0.00 31 1013.7
20260505191008 84 182 2.6 3.5 0.00 0.00 0.00 31 1013.8
20260505190503 84 184 3.5 3.5 0.00 0.00 0.00 30 1013.8
20260505185959 84 217 2.6 7.0 0.00 0.00 0.00 32 1013.9
20260505185456 85 148 1.7 5.2 0.00 0.00 0.00 31 1014.0
20260505184952 83 164 3.5 6.1 0.00 0.00 0.00 32 1014.3
20260505184449 84 189 4.3 7.8 0.00 0.00 0.00 30 1014.2
20260505183945 84 143 2.6 7.0 0.00 0.00 0.00 30 1014.2
20260505183443 84 190 3.5 5.2 0.00 0.00 0.00 30 1014.3
20260505182939 85 143 3.5 8.7 0.00 0.00 0.00 30 1014.2
20260505182437 84 133 3.5 7.8 0.00 0.00 0.00 30 1014.2
20260505181932 85 199 3.5 5.2 0.00 0.00 0.00 32 1014.2
20260505181430 84 202 1.7 3.5 0.00 0.00 0.00 33 1014.4
20260505180927 84 121 1.7 7.8 0.00 0.00 0.00 33 1014.4
20260505180423 84 152 0.9 5.2 0.00 0.00 0.00 34 1014.4
20260505175920 83 151 0.9 5.2 0.00 0.00 0.00 35 1014.7
20260505175416 84 223 2.6 5.2 0.00 0.00 0.00 34 1014.7
20260505174912 84 196 3.5 7.0 0.00 0.00 0.00 33 1014.7
20260505174410 83 199 1.7 5.2 0.00 0.00 0.00 35 1014.8
20260505173906 84 150 0.9 1.7 0.00 0.00 0.00 37 1014.9
20260505173403 83 194 3.5 5.2 0.00 0.00 0.00 36 1014.9
20260505172900 82 175 2.6 7.8 0.00 0.00 0.00 38 1015.0
20260505172358 84 159 0.9 1.7 0.00 0.00 0.00 38 1015.0
20260505171857 82 150 0.0 5.2 0.00 0.00 0.00 40 1015.2
20260505171354 82 174 0.0 6.1 0.00 0.00 0.00 42 1015.1
20260505170851 83 210 0.9 5.2 0.00 0.00 0.00 40 1015.2
20260505170348 82 107 1.7 2.6 0.00 0.00 0.00 42 1015.1
20260505165843 82 60 1.7 6.1 0.00 0.00 0.00 40 1015.2
20260505165339 82 122 0.9 2.6 0.00 0.00 0.00 42 1015.3
20260505164835 82 209 4.3 6.1 0.00 0.00 0.00 41 1015.3
20260505164331 81 146 0.9 3.5 0.00 0.00 0.00 42 1015.5
20260505163830 80 189 0.9 2.6 0.00 0.00 0.00 42 1015.3
20260505163328 81 168 1.7 5.2 0.00 0.00 0.00 44 1015.3
20260505162826 81 187 0.9 3.5 0.00 0.00 0.00 42 1015.5
20260505162322 81 201 0.9 2.6 0.00 0.00 0.00 42 1015.5
20260505161819 80 133 2.6 2.6 0.00 0.00 0.00 44 1015.8
20260505161317 80 110 2.6 2.6 0.00 0.00 0.00 45 1015.9
20260505160814 79 192 3.5 3.5 0.00 0.00 0.00 46 1015.8
20260505160312 79 235 0.9 5.2 0.00 0.00 0.00 46 1016.1
20260505153250 78 124 0.0 3.5 0.00 0.00 0.00 48 1016.2
20260505152747 77 154 0.9 2.6 0.00 0.00 0.00 48 1016.3
20260505152244 78 148 0.0 3.5 0.00 0.00 0.00 49 1016.1
20260505151738 77 177 0.9 1.7 0.00 0.00 0.00 48 1016.2
20260505151236 77 197 0.9 1.7 0.00 0.00 0.00 49 1016.2
20260505150732 77 131 2.6 3.5 0.00 0.00 0.00 48 1016.3
20260505150230 77 142 1.7 2.6 0.00 0.00 0.00 50 1016.1
20260505140154 72 143 0.0 0.9 0.00 0.00 0.00 54 1016.1
20260505130118 68 222 0.0 0.9 0.00 0.00 0.00 61 1016.5
20260505124607 66 180 0.9 0.9 0.00 0.00 0.00 65 1016.5
20260505124104 65 177 0.9 1.7 0.00 0.00 0.00 67 1016.6
20260505123600 65 153 0.9 0.9 0.00 0.00 0.00 68 1016.5
20260505123057 65 179 0.9 0.9 0.00 0.00 0.00 68 1016.6
20260505122553 64 144 0.0 1.7 0.00 0.00 0.00 68 1016.6
20260505122051 63 166 0.9 2.6 0.00 0.00 0.00 70 1016.3
20260505121547 63 162 0.0 1.7 0.00 0.00 0.00 70 1016.7
20260505121044 63 154 0.0 1.7 0.00 0.00 0.00 71 1016.5
20260505120540 63 163 1.7 5.2 0.00 0.00 0.00 71 1016.5
20260505120036 63 189 1.7 6.1 0.00 0.00 0.00 72 1016.2
20260505115531 62 129 1.7 2.6 0.00 0.00 0.00 72 1016.2
20260505115029 61 139 0.9 3.5 0.00 0.00 0.00 75 1016.1
20260505114525 60 159 0.0 0.0 0.00 0.00 0.00 76 1016.2
20260505114022 60 124 0.0 0.9 0.00 0.00 0.00 75 1016.1